Regional Weather Roundup
Issued by NWS Little Rock, AR

Home | Current Version | Previous Version | Graphics & Text | Print | Product List | Glossary On
Versions: 1 2 3 4 5 6 7 8 9 10 11 12 13 14 15 16 17 18 19 20 21 22 23 24 25 26 27 28 29 30 31 32 33 34 35 36 37 38 39 40 41 42 43 44
000
ASUS44 KLZK 241600
RWRLZK
ARKANSAS STATE WEATHER ROUNDUP
NATIONAL WEATHER SERVICE LITTLE ROCK AR
ISSUED BY NATIONAL WEATHER SERVICE MEMPHIS TN
1000 AM CST FRI FEB 24 2017

NOTE: "FAIR" INDICATES FEW OR NO CLOUDS BELOW 12,000 FEET WITH NO
SIGNIFICANT WEATHER AND/OR OBSTRUCTIONS TO VISIBILITY.

ARZ001-003-010-029-241700-
NORTHWEST ARKANSAS

CITY           SKY/WX    TMP DP  RH WIND       PRES   REMARKS
FORT SMITH     CLOUDY    52  40  63 NW15      29.76R
HARRISON       CLOUDY    49  42  77 NW12G21   29.68R
BENTONVILLE    CLOUDY    41  36  81 NW12      29.77R
SILOAM SPGS    CLOUDY    43  34  70 NW14      29.78R
HIGHFILL       CLOUDY    42  36  79 NW12      29.76R
$$

ARZ004-005-016-241700-
NORTH CENTRAL ARKANSAS

CITY           SKY/WX    TMP DP  RH WIND       PRES   REMARKS
BATESVILLE     PTSUNNY   63  54  72 S12G17    29.64S
FLIPPIN        CLOUDY    54  39  58 NW18      29.65R
MTN HOME       CLOUDY    51  43  74 NW10G28   29.65R
$$

ARZ040-041-241700-
WEST CENTRAL ARKANSAS

CITY           SKY/WX    TMP DP  RH WIND       PRES   REMARKS
MOUNT IDA      CLOUDY    59  47  64 NW7       29.69R
$$

ARZ017-025-026-028-241700-
NORTHEAST ARKANSAS

CITY           SKY/WX    TMP DP  RH WIND       PRES   REMARKS
JONESBORO      CLOUDY    64  55  72 SW20G29   29.65R
NEWPORT        PTSUNNY   63  56  78 SW22G29     N/A
WALNUT RIDGE   SUNNY     66  52  59 SW29      29.61S
BLYTHEVILLE    SUNNY     69  55  60 SW26G37   29.66R
$$

ARZ022-033-042-044-241700-
CENTRAL ARKANSAS

CITY           SKY/WX    TMP DP  RH WIND       PRES   REMARKS
LITTLE ROCK    CLOUDY    61  57  87 S10       29.69R
JACKSONVILLE   MOSUNNY   64  58  80 SW15      29.67R
SEARCY         CLOUDY    62  57  83 SW13G20   29.68R
HOT SPRINGS    CLOUDY    62  58  86 SW8       29.69R
RUSSELLVILLE   CLOUDY    59  46  62 NW14      29.68R
$$

ARZ036-241700-
EAST ARKANSAS

CITY           SKY/WX    TMP DP  RH WIND       PRES   REMARKS
WEST MEMPHIS   MOSUNNY   66  57  72 SW16G26   29.69R
$$

ARZ050-070-073-241700-
SOUTHWEST ARKANSAS

CITY           SKY/WX    TMP DP  RH WIND       PRES   REMARKS
TEXARKANA      CLOUDY    65  58  78 W13       29.70R
EL DORADO      PTSUNNY   67  58  72 S15G23    29.72S
DEQUEEN        CLOUDY    59  54  83 W7        29.70R
$$

ARZ056-057-069-241700-
SOUTHEAST ARKANSAS

CITY           SKY/WX    TMP DP  RH WIND       PRES   REMARKS
PINE BLUFF     CLOUDY    64  56  75 S13G26    29.70R
STUTTGART      CLOUDY    63  52  67 S15       29.71R
MONTICELLO     PTSUNNY   68  56  65 SW14G22   29.72R
$$





USA.gov is the U.S. government's official web portal to all federal, state and local government web resources and services.